Regional Weather Roundup
Issued by NWS

Home | Current Version | Previous Version | Graphics & Text | Print | Product List | Glossary On
Versions: 1 2 3 4 5 6 7 8 9 10 11 12 13 14 15 16 17 18 19 20 21 22 23 24 25 26 27 28 29 30 31 32 33 34 35 36 37 38 39 40 41 42 43 44 45 46 47 48 49 50
000
ASUS45 KCYS 190610
RWRWY

WYOMING REGIONAL WEATHER ROUNDUP
NATIONAL WEATHER SERVICE CHEYENNE WY
1200 AM MDT FRI SEP 19 2014

NOTE:  "FAIR" INDICATES FEW OR NO CLOUDS BELOW 12,000 FEET
WITH NO SIGNIFICANT WEATHER AND/OR OBSTRUCTIONS TO VISIBILITY.

WYZ001-190700-
YELLOWSTONE NATIONAL PARK

CITY           SKY/WX    TMP DP  RH WIND       PRES   REMARKS
LK YELLOWSTONE   N/A     49  45  86 VRB6      30.15R
6HR MIN TEMP:  48; 6HR MAX TEMP:  57; 6HR PCP:  0.39;

W YELLOWSTONE  NOT AVBL

$$
WYZ002>013-054>058-071-098>099-190700-
NORTHERN WYOMING

CITY           SKY/WX    TMP DP  RH WIND       PRES   REMARKS
JACKSON        CLOUDY    54  50  87 SW10      30.06F
CODY             N/A    N/A N/A N/A MISG        N/A
GREYBULL       CLOUDY    63  56  78 SE6       29.85F
6HR MIN TEMP:  63; 6HR MAX TEMP:  77; 6HR PCP:  0.04;

WORLAND        CLOUDY    65  54  67 E9        29.88F
6HR MIN TEMP:  63; 6HR MAX TEMP:  79; 6HR PCP: TRACE;

SHERIDAN       CLOUDY    61  55  81 S13       29.88R
6HR MIN TEMP:  60; 6HR MAX TEMP:  71; 6HR PCP:  0.02;

BUFFALO        LGT RAIN  60  54  80 NW13      29.94R
6HR MIN TEMP:  60; 6HR MAX TEMP:  72; 6HR PCP: TRACE;

GILLETTE       CLOUDY    64  51  62 N7        29.87R
6HR MIN TEMP:  59; 6HR MAX TEMP:  77;

HULETT         FAIR      63  54  72 MISG      29.88
NEWCASTLE      FAIR      66  43  42 NE6       29.81

$$
WYZ014>020-022>026-101>103-190700-
CENTRAL WYOMING

CITY           SKY/WX    TMP DP  RH WIND       PRES   REMARKS
BIG PINEY      CLOUDY    58  44  60 W13       30.19R THUNDER
6HR MIN TEMP:  56; 6HR MAX TEMP:  74;

PINEDALE       CLOUDY    54  46  76 W18G29    30.20R
DUBOIS         FAIR      50  45  81 CALM      30.10F
LANDER         CLOUDY    64  46  52 SE5       29.97R
6HR MIN TEMP:  64; 6HR MAX TEMP:  85;

RIVERTON       CLOUDY    66  47  50 N16G28    29.97R
6HR MIN TEMP:  66; 6HR MAX TEMP:  86; 6HR PCP: TRACE;

CASPER         PTCLDY    60  45  57 N8        29.93R
6HR MIN TEMP:  57; 6HR MAX TEMP:  86;

DOUGLAS        PTCLDY    61  42  49 CALM      29.87S
6HR MIN TEMP:  58; 6HR MAX TEMP:  88;


$$
WYZ021-027>030-104>119-190700-
SOUTHERN WYOMING

CITY           SKY/WX    TMP DP  RH WIND       PRES   REMARKS
EVANSTON       TSTM      54  48  80 N20       30.12R
6HR MIN TEMP:  54; 6HR MAX TEMP:  79; 6HR PCP: TRACE;

KEMMERER       CLOUDY    55  41  58 N18G25    30.12S
FORT BRIDGER   CLOUDY    62  45  53 NW16G24   30.14R
ROCK SPRINGS   MOCLDY    61  44  53 N14G20    30.06R
6HR MIN TEMP:  60; 6HR MAX TEMP:  80; 6HR PCP: TRACE;

DIXON          FAIR      53  40  61 CALM      30.07R
RAWLINS        CLEAR     58  31  35 SW3       30.03R
6HR MIN TEMP:  55; 6HR MAX TEMP:  80;

SARATOGA       FAIR      50  36  57 SE6       30.07R
LARAMIE        CLEAR     59  33  37 S7        30.07R
6HR MIN TEMP:  55; 6HR MAX TEMP:  77;

CHEYENNE       CLEAR     65  39  38 SW9       29.99S
6HR MIN TEMP:  64; 6HR MAX TEMP:  82;

TORRINGTON     CLEAR     61  56  83 E7        29.84S
6HR MIN TEMP:  61; 6HR MAX TEMP:  86;

PINE BLUFFS    FAIR      63  46  55 S12       29.95S

$$


USA.gov is the U.S. government's official web portal to all federal, state and local government web resources and services.